[[{"header":{"parameterUnit":"m.s-1","parameterCategory":1,"la1":30.2991,"la2":30.254,"lo1":-89.0895,"lo2":-89.0444,"dy":0.0017,"dx":0.0017,"nx":28,"ny":28,"refTime":"2024-11-30T09:00:00:Z","depth":0,"parameterNumber":2,"parameterNumberName":"U-component_of_WINDS"},"data":[0,0,0,0,0,0,0,0,0,0,0,0,0,0,0,0,0,0,0,0,0,0,0,0,0,0,0,0,0,0,0,0,0,0,0,0,0,0,0,0,0,0,0,0,0,0,0,0,0,0,0,0,0,0,0,0,0,0,-0.5284,-0.5284,0,-0.5289,-0.5289,-0.5289,-0.526,-0.5259,-0.5259,-0.5258,-0.5264,-0.5265,-0.5266,0,0,0,0,0,0,0,0,0,0,0,0,0,-0.5248,-0.5249,-0.5284,-0.5284,-0.5284,-0.5289,-0.5289,-0.5289,-0.526,-0.5259,-0.5258,-0.5257,-0.5264,-0.5265,-0.5266,0,0,0,0,0,0,0,0,0,0,0,0,0,-0.526,-0.525,-0.5284,-0.527,-0.5269,-0.5289,-0.5289,-0.5289,-0.5261,-0.5259,-0.5258,-0.5257,-0.5264,-0.5265,-0.5267,-0.53,0,0,-0.5271,-0.5272,0,0,0,0,0,0,0,0,-0.5259,-0.5261,-0.5272,-0.5271,-0.527,-0.5273,-0.5279,-0.5293,-0.5261,-0.5264,-0.5258,-0.5256,-0.5268,-0.5269,-0.5273,-0.5301,-0.5301,-0.5271,-0.5272,-0.5273,-0.5273,0,0,0,0,0,0,0,-0.5258,-0.5261,-0.5286,-0.5272,-0.5271,-0.5263,-0.5264,-0.5281,-0.5273,-0.5263,-0.5261,-0.5262,-0.5267,-0.5272,-0.5273,-0.5301,-0.5271,-0.5272,-0.5273,-0.5274,-0.5353,-0.5354,0,0,0,0,0,0,-0.5259,-0.526,-0.5286,-0.5286,-0.5261,-0.5265,-0.5265,-0.5273,-0.5273,-0.5271,-0.5263,-0.5261,-0.527,-0.5271,-0.5273,-0.531,-0.5273,-0.5274,-0.5275,-0.5352,-0.5353,-0.5355,0,0,0,0,0,0,-0.5259,-0.5262,-0.5285,-0.5272,-0.5275,-0.5267,-0.5276,-0.5274,-0.5278,-0.5273,-0.5271,-0.5269,-0.5269,-0.5271,-0.5293,-0.531,-0.5274,-0.5276,-0.535,-0.5352,-0.5354,-0.5386,0,0,0,0,0,0,-0.5258,-0.5262,-0.5275,-0.5273,-0.5276,-0.5306,-0.5277,-0.5275,-0.528,-0.5277,-0.5278,-0.5277,-0.5268,-0.5291,-0.5294,-0.5312,-0.5277,-0.5349,-0.5351,-0.5353,-0.5384,-0.5389,-0.5394,0,0,0,0,0,-0.5257,-0.5285,-0.5276,-0.5279,-0.5292,-0.5307,-0.5308,-0.5297,-0.5282,-0.5294,-0.529,-0.5277,-0.5308,-0.5293,-0.5297,-0.5315,-0.5347,-0.535,-0.5353,-0.5382,-0.5388,-0.5394,0,0,0,0,0,0,-0.5291,-0.5285,-0.5274,-0.5303,-0.5305,-0.5302,-0.5318,-0.5305,-0.5313,-0.531,-0.5296,-0.5296,-0.532,-0.532,-0.5304,-0.5346,-0.5325,-0.5328,-0.5345,-0.5351,-0.5356,-0.5356,-0.5278,0,0,0,0,0,-0.5301,-0.5314,-0.5308,-0.5333,-0.5335,-0.5326,-0.5332,-0.5323,-0.5325,-0.5327,-0.5324,-0.5327,-0.5337,-0.5344,-0.5354,-0.5383,-0.5382,-0.5397,-0.5402,-0.5406,-0.541,-0.5423,-0.5429,-0.5364,-0.5364,-0.5364,0,0,-0.5324,-0.5322,-0.5331,-0.534,-0.5341,-0.5353,-0.5327,-0.5342,-0.5351,-0.5329,-0.5349,-0.5347,-0.5349,-0.5374,-0.5385,-0.5375,-0.5427,-0.541,-0.5413,-0.5414,-0.5426,-0.5432,-0.5438,-0.5366,-0.5365,-0.5365,0,0,-0.5371,-0.5371,-0.5391,-0.5392,-0.5393,-0.5386,-0.5391,-0.5389,-0.5386,-0.5406,-0.5388,-0.5399,-0.5417,-0.5418,-0.5422,-0.5466,-0.5452,-0.5469,-0.5495,-0.5508,-0.5513,-0.5518,-0.5532,-0.5537,-0.5472,-0.5472,-0.5472,0,-0.5399,-0.5417,-0.5404,-0.5419,-0.5422,-0.5401,-0.5421,-0.5422,-0.5427,-0.543,-0.5417,-0.5438,-0.5438,-0.5462,-0.5472,-0.5476,-0.548,-0.5469,-0.5514,-0.5518,-0.5522,-0.5535,-0.5541,-0.5474,-0.5474,-0.5474,-0.5474,0,-0.545,-0.5463,-0.5479,-0.5482,-0.5487,-0.5505,-0.5493,-0.5501,-0.549,-0.5485,-0.5503,-0.5502,-0.551,-0.5515,-0.5506,-0.5537,-0.553,-0.5516,-0.5494,-0.553,-0.5542,-0.5547,-0.5477,-0.5476,-0.5476,-0.5475,0,0,-0.5521,-0.5514,-0.552,-0.5519,-0.5517,-0.5527,-0.5542,-0.5548,-0.5554,-0.5557,-0.5569,-0.5583,-0.5569,-0.5573,-0.5564,-0.5575,-0.5607,-0.5559,-0.5559,-0.5567,-0.5639,-0.5648,-0.5655,-0.5598,-0.5599,-0.56,-0.5638,0,-0.5565,-0.5591,-0.5578,-0.5606,-0.5616,-0.5594,-0.5608,-0.5607,-0.5602,-0.5609,-0.5603,-0.5613,-0.5595,-0.5597,-0.5607,-0.5601,-0.5621,-0.5598,-0.5608,-0.5609,-0.5608,-0.5661,-0.5672,-0.5708,-0.5643,-0.5644,-0.5644,0,-0.5622,-0.5625,-0.5653,-0.5646,-0.565,-0.5662,-0.5665,-0.5673,-0.5671,-0.5666,-0.5668,-0.5656,-0.5669,-0.5648,-0.5666,-0.565,-0.5653,-0.5651,-0.5652,-0.5652,-0.5628,-0.5662,-0.572,-0.5725,-0.5652,-0.5651,-0.5651,0,-0.5668,-0.5679,-0.5697,-0.5697,-0.5691,-0.5699,-0.5697,-0.5694,-0.5698,-0.57,-0.5702,-0.5707,-0.5709,-0.5712,-0.57,-0.5686,-0.5719,-0.5697,-0.5714,-0.5715,-0.5722,-0.5722,-0.5781,-0.5726,-0.5726,-0.5726,-0.5726,0,-0.5719,-0.5736,-0.5717,-0.5728,-0.5746,-0.573,-0.5749,-0.5744,-0.5741,-0.575,-0.5732,-0.5741,-0.5725,-0.5732,-0.5722,-0.5737,-0.5739,-0.5735,-0.5732,-0.5736,-0.5736,-0.5737,-0.5734,-0.5727,-0.5727,-0.5727,-0.5726,0,-0.5774,-0.5762,-0.5779,-0.577,-0.5768,-0.5782,-0.5774,-0.5783,-0.5775,-0.5786,-0.5788,-0.5776,-0.5783,-0.5771,-0.5777,-0.577,-0.579,-0.5785,-0.5791,-0.5789,-0.5806,-0.5804,-0.5867,-0.5873,-0.5815,-0.5816,-0.5816,0,-0.5807,-0.5819,-0.5811,-0.5815,-0.5813,-0.582,-0.5823,-0.5807,-0.5811,-0.5808,-0.5817,-0.5822,-0.5825,-0.5836,-0.5828,-0.5831,-0.5824,-0.5846,-0.5825,-0.5827,-0.5823,-0.5822,-0.5822,-0.585,-0.5851,-0.5852,-0.5852,0,-0.5866,-0.5858,-0.5863,-0.5864,-0.5867,-0.5868,-0.5868,-0.5872,-0.5855,-0.586,-0.5866,-0.5868,-0.5872,-0.5876,-0.5877,-0.5874,-0.586,-0.5859,-0.5862,-0.5866,-0.5869,-0.5866,-0.5801,-0.5857,-0.5857,-0.5856,-0.5856,-0.5856,-0.591,-0.5919,-0.5913,-0.5918,-0.5915,-0.5915,-0.5922,-0.5914,-0.5918,-0.592,-0.591,-0.5918,-0.5913,-0.5913,-0.5911,-0.5916,-0.5906,-0.5912,-0.5914,-0.5915,-0.5917,-0.5868,-0.5916,-0.5916,-0.5916,-0.5916,-0.5916,0,-0.5966,-0.5961,-0.5965,-0.5964,-0.5967,-0.5952,-0.595,-0.5954,-0.596,-0.5957,-0.5959,-0.5965,-0.5968,-0.5959,-0.5961,-0.5966,-0.5959,-0.5967,-0.5966,-0.5965,-0.5926,-0.5922,-0.5972,-0.5972,-0.5972,-0.5972,-0.5972,-0.5972,-0.5996,-0.601,-0.6001,-0.6013,-0.6008,-0.6014,-0.6013,-0.6012,-0.6009,-0.6015,-0.6018,-0.6011,-0.6005,-0.6006,-0.6008,-0.6005,-0.6006,-0.6015,-0.601,-0.5974,-0.5968,-0.5963,-0.5959,-0.6016,-0.6016,-0.6048,-0.6048,-0.6049]},{"header":{"parameterUnit":"m.s-1","parameterCategory":1,"la1":30.2991,"la2":30.254,"lo1":-89.0895,"lo2":-89.0444,"dy":0.0017,"dx":0.0017,"nx":28,"ny":28,"refTime":"2024-11-30T09:00:00:Z","depth":0,"parameterNumber":3,"parameterNumberName":"V-component_of_WINDS"},"data":[0,0,0,0,0,0,0,0,0,0,0,0,0,0,0,0,0,0,0,0,0,0,0,0,0,0,0,0,0,0,0,0,0,0,0,0,0,0,0,0,0,0,0,0,0,0,0,0,0,0,0,0,0,0,0,0,0,0,-3.6101,-3.6102,0,-3.6178,-3.6179,-3.618,-3.6132,-3.613,-3.6128,-3.6126,-3.6202,-3.6206,-3.621,0,0,0,0,0,0,0,0,0,0,0,0,0,-3.591,-3.5913,-3.6101,-3.6102,-3.6103,-3.6178,-3.6179,-3.618,-3.6133,-3.613,-3.6127,-3.6125,-3.6201,-3.6205,-3.621,0,0,0,0,0,0,0,0,0,0,0,0,0,-3.599,-3.5915,-3.6101,-3.6089,-3.6088,-3.6178,-3.6179,-3.618,-3.6133,-3.613,-3.6127,-3.6124,-3.6199,-3.6205,-3.6211,-3.6316,0,0,-3.623,-3.6233,0,0,0,0,0,0,0,0,-3.5986,-3.5997,-3.6089,-3.609,-3.6089,-3.6142,-3.6139,-3.6226,-3.6134,-3.6116,-3.6126,-3.6122,-3.6185,-3.6192,-3.6213,-3.632,-3.6323,-3.623,-3.6234,-3.6237,-3.6239,0,0,0,0,0,0,0,-3.598,-3.5994,-3.6131,-3.6091,-3.6091,-3.6078,-3.6086,-3.6155,-3.6168,-3.6117,-3.6114,-3.6124,-3.6184,-3.6208,-3.6215,-3.6324,-3.623,-3.6236,-3.624,-3.6242,-3.6519,-3.6522,0,0,0,0,0,0,-3.5976,-3.5989,-3.6129,-3.6134,-3.6028,-3.6084,-3.6093,-3.6129,-3.6167,-3.617,-3.6127,-3.6122,-3.6199,-3.6208,-3.6217,-3.6342,-3.6237,-3.6243,-3.6246,-3.6515,-3.6519,-3.6523,0,0,0,0,0,0,-3.5972,-3.5989,-3.6126,-3.6061,-3.6077,-3.6091,-3.6132,-3.6132,-3.6156,-3.6174,-3.6176,-3.6149,-3.6196,-3.6209,-3.6292,-3.6344,-3.6245,-3.6251,-3.6511,-3.6516,-3.6521,-3.6592,0,0,0,0,0,0,-3.5967,-3.5988,-3.6029,-3.6062,-3.6081,-3.62,-3.6135,-3.6136,-3.6167,-3.616,-3.6196,-3.6198,-3.6195,-3.6283,-3.6298,-3.635,-3.6256,-3.6506,-3.6513,-3.652,-3.6585,-3.6599,-3.6612,0,0,0,0,0,-3.596,-3.6046,-3.6031,-3.6048,-3.6133,-3.6203,-3.6214,-3.6209,-3.6171,-3.6212,-3.6224,-3.6197,-3.6336,-3.6292,-3.6308,-3.6364,-3.6503,-3.6511,-3.6519,-3.6579,-3.6597,-3.6611,0,0,0,0,0,0,-3.6017,-3.605,-3.6034,-3.6133,-3.6166,-3.6195,-3.6246,-3.6228,-3.6271,-3.6264,-3.6255,-3.6263,-3.635,-3.6365,-3.6315,-3.6466,-3.6413,-3.6425,-3.6453,-3.647,-3.6483,-3.6477,-3.6261,0,0,0,0,0,-3.6042,-3.6098,-3.6122,-3.6207,-3.6224,-3.6233,-3.6263,-3.6257,-3.629,-3.6303,-3.6321,-3.6354,-3.6404,-3.6438,-3.6486,-3.6587,-3.6593,-3.6633,-3.6646,-3.6657,-3.6667,-3.672,-3.6738,-3.655,-3.655,-3.655,0,0,-3.6092,-3.6117,-3.6152,-3.6219,-3.6244,-3.63,-3.6245,-3.6307,-3.6349,-3.6313,-3.6392,-3.6406,-3.6442,-3.6534,-3.6576,-3.655,-3.6721,-3.6668,-3.6676,-3.668,-3.6731,-3.6748,-3.6764,-3.6556,-3.6555,-3.6554,0,0,-3.6213,-3.6238,-3.631,-3.6336,-3.6374,-3.6379,-3.6397,-3.6429,-3.6437,-3.6517,-3.6491,-3.6539,-3.6627,-3.6653,-3.6678,-3.6807,-3.6784,-3.6823,-3.6891,-3.6943,-3.6958,-3.6971,-3.7016,-3.7032,-3.6833,-3.6834,-3.6834,0,-3.627,-3.6356,-3.635,-3.6414,-3.6444,-3.6414,-3.6487,-3.6512,-3.6563,-3.6584,-3.6554,-3.6663,-3.6685,-3.6782,-3.6814,-3.6835,-3.6854,-3.6819,-3.6957,-3.697,-3.6982,-3.7024,-3.7041,-3.6838,-3.6837,-3.6837,-3.6837,0,-3.6424,-3.6484,-3.6537,-3.6588,-3.6624,-3.6692,-3.6695,-3.6732,-3.6722,-3.6729,-3.681,-3.6835,-3.6887,-3.691,-3.6901,-3.7006,-3.6988,-3.6958,-3.6904,-3.7004,-3.7044,-3.706,-3.6844,-3.6843,-3.6841,-3.684,0,0,-3.6583,-3.6629,-3.6649,-3.6671,-3.6711,-3.6756,-3.6822,-3.6874,-3.6904,-3.6941,-3.6995,-3.707,-3.7042,-3.707,-3.7063,-3.7109,-3.7208,-3.7073,-3.7074,-3.7096,-3.7323,-3.7345,-3.7364,-3.7193,-3.7196,-3.7199,-3.732,0,-3.6705,-3.6822,-3.6818,-3.6926,-3.698,-3.6952,-3.7009,-3.7039,-3.7048,-3.7094,-3.7103,-3.7155,-3.7115,-3.7132,-3.7176,-3.7187,-3.7254,-3.7178,-3.7242,-3.7245,-3.7233,-3.7385,-3.7409,-3.7522,-3.7336,-3.7338,-3.734,0,-3.6863,-3.6905,-3.7019,-3.7049,-3.7072,-3.7124,-3.7169,-3.7214,-3.7247,-3.725,-3.7281,-3.7267,-3.7332,-3.7277,-3.7366,-3.7315,-3.7341,-3.735,-3.7355,-3.7359,-3.7298,-3.7393,-3.7558,-3.7575,-3.7365,-3.7363,-3.7361,0,-3.6966,-3.7051,-3.713,-3.715,-3.7187,-3.7224,-3.7241,-3.7271,-3.7301,-3.7341,-3.7361,-3.7408,-3.7433,-3.7469,-3.7467,-3.7427,-3.7557,-3.7502,-3.756,-3.756,-3.7588,-3.7586,-3.7758,-3.7607,-3.7606,-3.7606,-3.7606,0,-3.7102,-3.7172,-3.7176,-3.7224,-3.7302,-3.7296,-3.7372,-3.7386,-3.7412,-3.7461,-3.744,-3.7486,-3.7482,-3.7528,-3.7527,-3.76,-3.7612,-3.7615,-3.7614,-3.7617,-3.7616,-3.7633,-3.7624,-3.7611,-3.761,-3.7609,-3.7608,0,-3.723,-3.7235,-3.7319,-3.7348,-3.7357,-3.7412,-3.7436,-3.7481,-3.7488,-3.7551,-3.7565,-3.7575,-3.7628,-3.763,-3.7692,-3.7691,-3.778,-3.777,-3.7769,-3.7767,-3.7824,-3.7818,-3.8012,-3.8036,-3.787,-3.7872,-3.7873,0,-3.7316,-3.7369,-3.7404,-3.7436,-3.7455,-3.7507,-3.7538,-3.7534,-3.7567,-3.7607,-3.7647,-3.7699,-3.774,-3.7826,-3.7838,-3.7885,-3.7875,-3.794,-3.7882,-3.7883,-3.7875,-3.7871,-3.7876,-3.7951,-3.7953,-3.7955,-3.7956,0,-3.7467,-3.7467,-3.7513,-3.7561,-3.7598,-3.7635,-3.7669,-3.7696,-3.7696,-3.7734,-3.7788,-3.782,-3.7883,-3.7934,-3.7979,-3.7995,-3.7975,-3.7974,-3.7989,-3.7992,-3.7989,-3.799,-3.7799,-3.7969,-3.7968,-3.7967,-3.7966,-3.7966,-3.7576,-3.7621,-3.7653,-3.7704,-3.773,-3.7762,-3.7805,-3.7817,-3.7863,-3.7914,-3.7909,-3.7969,-3.7999,-3.8057,-3.8077,-3.8123,-3.8101,-3.8124,-3.8129,-3.8135,-3.814,-3.7983,-3.8132,-3.8131,-3.8131,-3.8131,-3.813,0,-3.7725,-3.7744,-3.7791,-3.784,-3.788,-3.7859,-3.7895,-3.7929,-3.7983,-3.8013,-3.8054,-3.8116,-3.8165,-3.8181,-3.8228,-3.8262,-3.8254,-3.8274,-3.8271,-3.8275,-3.8158,-3.814,-3.828,-3.828,-3.828,-3.828,-3.828,-3.828,-3.7807,-3.7883,-3.7886,-3.7974,-3.7991,-3.8051,-3.8073,-3.8102,-3.8126,-3.8196,-3.8237,-3.8247,-3.8271,-3.832,-3.8363,-3.8367,-3.8384,-3.8408,-3.8408,-3.8298,-3.8283,-3.8269,-3.8251,-3.8413,-3.8413,-3.852,-3.8521,-3.8522]}]]